EW5375 Weather Reports


time (UTC)temp
F
wind
direction
speed
knots
gust
knots
rain 1hr
in
rain 24hr
in
rain mn
in
humidity
%
barometer
mb
20260906231518 61 131 0.0 0.9 0.00 0.13 0.06 75 1015.3
20260906230016 60 155 0.0 1.7 0.00 0.13 0.06 77 1015.5
20260906224515 59 75 0.0 0.9 0.00 0.13 0.06 78 1015.6
20260906223014 59 153 0.0 0.0 0.00 0.13 0.06 80 1015.6
20260906221511 58 153 0.0 0.0 0.00 0.13 0.06 82 1015.8
20260906220008 58 227 0.0 0.9 0.00 0.13 0.06 81 1015.8
20260906214517 58 137 0.0 1.7 0.00 0.14 0.06 80 1015.9
20260906213009 59 146 0.0 1.7 0.00 0.14 0.06 79 1016.0
20260906211504 58 133 0.0 3.5 0.00 0.14 0.06 81 1016.1
20260906210002 57 148 0.0 1.7 0.00 0.18 0.06 83 1016.2
20260906204609 57 140 0.0 0.9 0.00 0.18 0.06 86 1016.2
20260906203056 56 94 0.0 0.9 0.00 0.18 0.06 87 1016.3
20260906201600 55 94 0.0 2.6 0.00 0.18 0.06 90 1016.5
20260906200051 55 82 0.0 0.9 0.00 0.18 0.06 91 1016.5
20260906194548 54 118 0.0 3.5 0.00 0.22 0.06 92 1016.8
20260906193046 54 97 0.0 2.6 0.00 0.22 0.06 93 1016.7
20260906191544 53 60 0.0 2.6 0.00 0.22 0.06 93 1016.9
20260906190041 53 87 0.0 2.6 0.00 0.22 0.06 92 1017.0
20260906184540 52 89 0.0 4.3 0.00 0.23 0.06 92 1017.3
20260906183036 52 67 0.9 3.5 0.00 0.23 0.06 92 1017.3
20260906181536 52 81 0.0 2.6 0.00 0.23 0.06 92 1017.4
20260906180031 51 86 0.0 3.5 0.00 0.23 0.06 92 1017.4
20260906174527 51 98 0.0 3.5 0.00 0.24 0.06 93 1017.5
20260906173024 51 80 0.0 3.5 0.00 0.24 0.06 92 1017.7
20260906171521 51 77 0.0 2.6 0.00 0.24 0.06 92 1017.9
20260906170029 50 66 0.0 2.6 0.00 0.24 0.06 92 1018.1
20260906164516 50 85 0.0 1.7 0.00 0.24 0.06 92 1018.3
20260906163011 50 80 0.0 0.9 0.00 0.24 0.06 92 1018.6
20260906161510 50 79 0.0 0.0 0.00 0.24 0.06 92 1018.8
20260906160009 50 79 0.0 0.0 0.00 0.24 0.06 92 1018.8
20260906154517 50 80 0.0 0.0 0.00 0.24 0.06 92 1018.8
20260906153014 50 79 0.0 0.9 0.00 0.24 0.06 92 1018.8
20260906151503 49 65 0.0 0.9 0.00 0.24 0.06 93 1018.7
20260906150002 49 212 0.0 0.0 0.00 0.24 0.06 93 1018.7
20260906144500 49 212 0.0 0.0 0.00 0.24 0.06 92 1018.8
20260906143130 49 212 0.0 0.0 0.00 0.24 0.06 93 1018.7
20260906141600 49 212 0.0 0.0 0.00 0.24 0.06 93 1018.8
20260906140100 48 212 0.0 0.0 0.00 0.24 0.06 92 1019.0
20260906134611 48 251 0.0 0.0 0.01 0.24 0.06 93 1018.7
20260906133059 48 251 0.0 0.0 0.02 0.24 0.06 92 1019.0
20260906131557 48 251 0.0 0.0 0.03 0.24 0.06 92 1019.0
20260906130055 48 251 0.0 0.0 0.04 0.24 0.06 92 1019.0
20260906124555 48 251 0.0 0.0 0.05 0.24 0.05 92 1019.2
20260906123119 48 251 0.0 0.0 0.04 0.23 0.04 92 1019.5
20260906121551 49 251 0.0 0.0 0.02 0.21 0.02 92 1019.5
20260906120049 49 243 0.0 0.0 0.02 0.20 0.02 92 1019.6
20260906114547 49 222 0.0 0.9 0.00 0.19 0.00 92 1020.2
20260906113046 49 131 0.0 0.0 0.00 0.19 0.00 92 1020.4
20260906111546 49 30 0.0 0.0 0.00 0.19 0.00 92 1020.5
20260906110045 49 30 0.0 0.0 0.00 0.19 0.00 92 1020.6
20260906104545 48 30 0.0 0.0 0.00 0.19 0.00 92 1020.7
20260906103048 48 30 0.0 0.0 0.00 0.19 0.00 92 1020.6
20260906101544 48 82 0.0 0.9 0.00 0.19 0.00 92 1020.1
20260906100042 48 83 0.0 1.7 0.00 0.19 0.00 92 1020.4
20260906094539 49 70 0.0 0.9 0.00 0.19 0.00 92 1020.3
20260906093041 49 81 0.0 0.9 0.00 0.19 0.00 92 1020.6
20260906091550 49 68 0.0 0.0 0.00 0.19 0.00 92 1020.7
20260906090036 49 68 0.0 0.0 0.00 0.19 0.00 92 1020.7
20260906084534 49 68 0.0 0.0 0.00 0.19 0.00 92 1020.9
20260906083035 49 68 0.0 0.0 0.00 0.19 0.00 92 1021.2
20260906081529 49 68 0.0 0.0 0.00 0.19 0.00 92 1021.4
20260906080031 49 68 0.0 0.0 0.00 0.19 0.00 91 1021.7
20260906074528 49 68 0.0 0.0 0.00 0.19 0.00 91 1021.4
20260906073027 49 330 0.0 0.0 0.00 0.19 0.00 91 1021.5
20260906071525 49 328 0.0 0.0 0.00 0.19 0.00 91 1021.6
20260906070023 49 328 0.0 0.0 0.00 0.19 0.00 91 1021.8
20260906064522 49 328 0.0 0.0 0.00 0.19 0.00 91 1021.8
20260906063018 50 329 0.0 0.0 0.01 0.19 0.00 91 1021.8
20260906061515 50 329 0.0 0.0 0.01 0.19 0.00 91 1021.7
20260906060010 50 329 0.0 0.0 0.01 0.19 0.00 91 1021.7
20260906054509 50 329 0.0 0.0 0.01 0.19 0.19 91 1021.6
20260906053009 50 328 0.0 0.0 0.00 0.18 0.18 91 1021.8
20260906051508 50 290 0.0 0.0 0.02 0.18 0.18 91 1021.8
20260906050008 50 241 0.0 0.0 0.02 0.18 0.18 91 1021.7
20260906044507 50 241 0.0 0.0 0.02 0.18 0.18 91 1021.8
20260906043007 50 255 0.0 0.0 0.02 0.18 0.18 91 1021.8
20260906041505 50 299 0.0 0.0 0.00 0.17 0.17 91 1021.8
20260906040005 50 345 0.0 0.0 0.00 0.17 0.17 91 1021.6
20260906034501 50 342 0.0 0.0 0.00 0.17 0.17 91 1021.3
20260906033110 50 13 0.0 0.0 0.00 0.17 0.17 91 1021.2
20260906031558 49 5 0.0 0.9 0.00 0.17 0.17 91 1021.0
20260906030057 49 339 0.0 0.9 0.00 0.17 0.17 91 1020.8
20260906024558 49 319 0.0 1.7 0.00 0.17 0.17 91 1020.7
20260906023059 50 323 0.0 0.9 0.00 0.17 0.17 91 1020.7
20260906021559 49 305 0.0 0.9 0.00 0.17 0.17 91 1020.8
20260906020106 50 290 0.0 1.7 0.01 0.17 0.17 91 1020.9
20260906014600 50 271 0.0 0.9 0.01 0.17 0.17 91 1020.9
20260906013106 50 266 0.0 0.9 0.01 0.17 0.17 91 1020.9
20260906011602 50 259 0.0 0.9 0.02 0.17 0.17 91 1020.7
20260906010052 50 275 0.0 0.0 0.01 0.16 0.16 91 1020.5
20260906004601 49 239 0.0 0.0 0.02 0.16 0.16 91 1020.5
20260906003053 49 314 0.0 1.7 0.02 0.16 0.16 91 1020.6
20260906001552 49 322 0.0 1.7 0.02 0.15 0.15 90 1020.5
20260906000056 49 15 0.0 0.9 0.03 0.15 0.15 90 1020.5
20260905234550 49 29 0.0 0.9 0.02 0.14 0.14 90 1020.5
20260905233049 49 17 0.0 0.9 0.02 0.13 0.13 90 1020.5